TimeMDT,TemperatureF,Dew PointF,Humidity,Sea Level PressureIn,VisibilityMPH,Wind Direction,Wind SpeedMPH,Gust SpeedMPH,PrecipitationIn,Events,Conditions,WindDirDegrees,DateUTC
12:15 AM,70.0,63.3,79,30.00,10.0,WSW,3.5,-,N/A,,Clear,250,2013-08-20 06:15:00
12:35 AM,69.6,63.0,79,30.00,10.0,West,3.5,-,N/A,,Clear,260,2013-08-20 06:35:00
12:55 AM,68.9,63.0,81,29.99,10.0,SW,3.5,-,N/A,,Clear,230,2013-08-20 06:55:00
1:15 AM,67.6,62.6,84,29.99,10.0,West,5.8,-,N/A,,Clear,260,2013-08-20 07:15:00
1:35 AM,67.5,62.6,84,29.98,10.0,WSW,3.5,-,N/A,,Clear,240,2013-08-20 07:35:00
1:55 AM,65.8,61.9,87,29.98,10.0,Calm,Calm,-,N/A,,Clear,0,2013-08-20 07:55:00
2:15 AM,63.5,60.8,91,29.98,7.0,Calm,Calm,-,N/A,,Clear,0,2013-08-20 08:15:00
2:35 AM,63.0,60.6,92,29.98,7.0,South,3.5,-,N/A,,Clear,180,2013-08-20 08:35:00
2:55 AM,63.5,61.0,91,29.98,7.0,South,3.5,-,N/A,,Clear,180,2013-08-20 08:55:00
3:15 AM,62.6,59.9,91,29.97,7.0,Calm,Calm,-,N/A,,Clear,0,2013-08-20 09:15:00
3:35 AM,63.1,60.3,90,29.96,10.0,Calm,Calm,-,N/A,,Clear,0,2013-08-20 09:35:00
3:55 AM,62.1,59.7,92,29.96,7.0,Calm,Calm,-,N/A,,Clear,0,2013-08-20 09:55:00
4:15 AM,62.1,59.9,93,29.97,7.0,Calm,Calm,-,N/A,,Clear,0,2013-08-20 10:15:00
4:35 AM,62.2,60.3,93,29.97,7.0,Calm,Calm,-,N/A,,Clear,0,2013-08-20 10:35:00
4:55 AM,61.7,59.9,94,29.97,5.0,ESE,3.5,-,N/A,,Clear,110,2013-08-20 10:55:00
5:15 AM,61.5,59.7,94,29.97,5.0,ESE,3.5,-,N/A,,Clear,120,2013-08-20 11:15:00
5:35 AM,61.0,59.2,94,29.97,5.0,ESE,3.5,-,N/A,,Clear,110,2013-08-20 11:35:00
5:55 AM,60.3,58.8,95,29.98,5.0,Calm,Calm,-,N/A,,Clear,0,2013-08-20 11:55:00
6:15 AM,59.2,57.6,94,29.98,3.0,Calm,Calm,-,N/A,,Clear,0,2013-08-20 12:15:00
6:35 AM,60.8,59.0,94,29.99,4.0,Calm,Calm,-,N/A,,Clear,0,2013-08-20 12:35:00
6:55 AM,60.8,59.0,94,29.99,5.0,Calm,Calm,-,N/A,,Clear,0,2013-08-20 12:55:00
7:15 AM,63.3,61.2,93,29.99,5.0,Calm,Calm,-,N/A,,Clear,0,2013-08-20 13:15:00
7:35 AM,65.1,61.9,89,29.99,7.0,Calm,Calm,-,N/A,,Clear,0,2013-08-20 13:35:00
7:55 AM,66.4,62.4,87,29.99,7.0,Calm,Calm,-,N/A,,Clear,0,2013-08-20 13:55:00
8:15 AM,68.0,63.3,85,29.99,7.0,Calm,Calm,-,N/A,,Clear,0,2013-08-20 14:15:00
8:35 AM,69.8,63.9,81,29.99,10.0,Calm,Calm,-,N/A,,Clear,0,2013-08-20 14:35:00
8:55 AM,71.6,64.4,78,29.99,10.0,Calm,Calm,-,N/A,,Clear,0,2013-08-20 14:55:00
9:15 AM,73.6,64.8,74,29.99,10.0,Calm,Calm,-,N/A,,Clear,0,2013-08-20 15:15:00
9:35 AM,75.6,65.5,71,29.99,10.0,WSW,3.5,-,N/A,,Clear,240,2013-08-20 15:35:00
9:55 AM,78.6,66.0,65,29.99,10.0,Calm,Calm,-,N/A,,Clear,0,2013-08-20 15:55:00
10:15 AM,82.2,67.3,60,29.99,10.0,South,4.6,-,N/A,,Clear,170,2013-08-20 16:15:00
10:35 AM,84.7,66.0,53,29.98,10.0,South,8.1,-,N/A,,Clear,190,2013-08-20 16:35:00
10:55 AM,86.7,65.8,50,29.98,10.0,SSW,6.9,-,N/A,,Clear,210,2013-08-20 16:55:00
11:15 AM,89.8,64.4,43,29.97,10.0,SSW,6.9,-,N/A,,Clear,210,2013-08-20 17:15:00
11:35 AM,92.7,58.5,32,29.97,10.0,SSW,13.8,18.4,N/A,,Clear,200,2013-08-20 17:35:00
11:55 AM,93.7,59.4,32,29.97,10.0,South,12.7,18.4,N/A,,Clear,170,2013-08-20 17:55:00
12:15 PM,93.9,61.0,33,29.97,10.0,South,13.8,18.4,N/A,,Clear,170,2013-08-20 18:15:00
12:35 PM,94.5,60.6,32,29.96,10.0,South,13.8,19.6,N/A,,Clear,180,2013-08-20 18:35:00
12:55 PM,95.9,59.9,30,29.95,10.0,South,13.8,-,N/A,,Clear,170,2013-08-20 18:55:00
1:15 PM,96.4,58.1,28,29.95,10.0,South,15.0,19.6,N/A,,Clear,170,2013-08-20 19:15:00
1:35 PM,97.0,56.7,26,29.95,10.0,South,13.8,18.4,N/A,,Clear,190,2013-08-20 19:35:00
1:55 PM,97.3,54.5,24,29.94,10.0,SSW,17.3,20.7,N/A,,Clear,200,2013-08-20 19:55:00
2:15 PM,97.3,53.6,23,29.94,10.0,SSW,16.1,21.9,N/A,,Clear,200,2013-08-20 20:15:00
2:35 PM,98.6,49.8,19,29.93,10.0,South,18.4,26.5,N/A,,Clear,170,2013-08-20 20:35:00
2:55 PM,98.6,50.0,19,29.93,10.0,South,15.0,24.2,N/A,,Clear,180,2013-08-20 20:55:00
3:15 PM,98.6,48.6,18,29.92,10.0,South,15.0,24.2,N/A,,Clear,190,2013-08-20 21:15:00
3:35 PM,98.2,50.2,20,29.92,10.0,South,15.0,20.7,N/A,,Clear,170,2013-08-20 21:35:00
3:55 PM,98.4,47.7,18,29.91,10.0,South,13.8,21.9,N/A,,Clear,170,2013-08-20 21:55:00
4:15 PM,98.1,49.3,19,29.91,10.0,South,15.0,25.3,N/A,,Clear,180,2013-08-20 22:15:00
4:35 PM,97.9,48.7,19,29.91,10.0,South,13.8,-,N/A,,Clear,180,2013-08-20 22:35:00
4:55 PM,97.7,46.9,18,29.92,10.0,South,13.8,21.9,N/A,,Clear,180,2013-08-20 22:55:00
5:15 PM,97.0,47.1,18,29.92,10.0,South,12.7,18.4,N/A,,Clear,170,2013-08-20 23:15:00
5:35 PM,96.3,48.6,20,29.92,10.0,South,12.7,17.3,N/A,,Clear,170,2013-08-20 23:35:00
5:55 PM,94.8,48.6,21,29.92,10.0,South,9.2,-,N/A,,Clear,180,2013-08-20 23:55:00
6:15 PM,93.0,51.4,24,29.91,10.0,South,8.1,-,N/A,,Clear,170,2013-08-21 00:15:00
6:35 PM,91.0,52.5,27,29.91,10.0,South,6.9,-,N/A,,Clear,170,2013-08-21 00:35:00
6:55 PM,88.5,53.1,30,29.92,10.0,South,8.1,-,N/A,,Clear,170,2013-08-21 00:55:00
7:15 PM,86.4,53.6,32,29.92,10.0,South,6.9,-,N/A,,Clear,170,2013-08-21 01:15:00
7:35 PM,83.7,54.7,37,29.92,10.0,South,6.9,-,N/A,,Clear,170,2013-08-21 01:35:00
7:55 PM,81.7,55.8,41,29.93,10.0,South,5.8,-,N/A,,Clear,170,2013-08-21 01:55:00
8:15 PM,80.2,56.7,44,29.93,10.0,South,6.9,-,N/A,,Clear,170,2013-08-21 02:15:00
8:35 PM,79.7,57.2,46,29.94,10.0,South,6.9,-,N/A,,Clear,170,2013-08-21 02:35:00
8:55 PM,78.3,57.2,48,29.95,10.0,South,5.8,-,N/A,,Clear,170,2013-08-21 02:55:00
9:15 PM,77.9,58.1,50,29.95,10.0,South,9.2,-,N/A,,Clear,170,2013-08-21 03:15:00
9:35 PM,79.0,59.5,51,29.96,10.0,South,9.2,-,N/A,,Clear,170,2013-08-21 03:35:00
9:55 PM,78.8,60.3,53,29.97,10.0,South,10.4,-,N/A,,Clear,180,2013-08-21 03:55:00
10:15 PM,78.8,61.0,54,29.97,10.0,South,10.4,-,N/A,,Clear,180,2013-08-21 04:15:00
10:35 PM,78.4,61.2,55,29.97,10.0,South,11.5,-,N/A,,Clear,180,2013-08-21 04:35:00
10:55 PM,78.1,61.7,57,29.98,10.0,South,11.5,-,N/A,,Clear,180,2013-08-21 04:55:00
11:15 PM,77.5,61.9,58,29.98,10.0,South,9.2,-,N/A,,Clear,180,2013-08-21 05:15:00
11:35 PM,76.8,62.1,60,29.98,10.0,South,8.1,-,N/A,,Clear,190,2013-08-21 05:35:00
11:55 PM,77.0,62.1,60,29.98,10.0,South,10.4,-,N/A,,Clear,190,2013-08-21 05:55:00